Regional Weather Roundup
Issued by NWS

Home | Current Version | Previous Version | Graphics & Text | Print | Product List | Glossary On
Versions: 1 2 3 4 5 6 7 8 9 10 11 12 13 14 15 16 17 18 19 20 21 22 23 24 25 26 27 28 29 30 31 32 33 34 35 36 37 38 39 40 41 42 43 44 45 46 47 48 49 50
281
ASUS45 KSLC 211210
RWRUT

UTAH REGIONAL WEATHER ROUNDUP
NATIONAL WEATHER SERVICE SALT LAKE CITY UT
500 AM MST WED FEB 21 2018

UTZ001>011-023>025-211300-

NORTHERN UTAH

CITY           SKY/WX    TMP DP  RH WIND       PRES   REMARKS
BRIGHAM CITY   PTCLDY    12   5  72 NW3       30.16S
HILL AFB       PTCLDY     8  -1  67 SE16      30.12S WCI -10
LOGAN          PTCLDY     0  -8  69 CALM      30.16S
OGDEN          PTCLDY    11   1  64 S8        30.13S WCI  -1
SALT LAKE CITY PTCLDY    16   5  62 SE7       30.15R WCI   6
TOOELE VALLEY  PTCLDY     9   3  78 CALM      30.13F
WENDOVER       MOCLDY    17  10  74 CALM      30.13R
HEBER CITY     FOG       -6  -9  84 E5        30.12R VSB 3/4 WCI -17
WEST JORDAN    PTCLDY    13   8  80 SE10      30.13S WCI   0

$$

UTZ011>015-024>027-211300-

CENTRAL/NORTHEAST UTAH

CITY           SKY/WX    TMP DP  RH WIND       PRES   REMARKS
PROVO AIRPORT  PTCLDY     7   1  76 E3        30.16F
MOAB/CANYONLAN CLEAR     20  13  74 SE8       30.12S WCI  10
DELTA          MOCLDY     0  -6  78 CALM      30.10F
PRICE          PTCLDY     6  -5  60 N8        30.07R WCI  -7
RICHFIELD      PTCLDY    10   7  85 CALM      30.12S
VERNAL         MOCLDY     2  -4  76 W3        30.16S

$$

UTZ013>016-019>022-027-211300-

SOUTHERN UTAH

CITY           SKY/WX    TMP DP  RH WIND       PRES   REMARKS
BRYCE CANYON   MOCLDY    -2  -7  79 W9        30.00S WCI -18
CEDAR CITY     CLOUDY     8   5  87 CALM      30.02S
MILFORD        MOCLDY     2  -2  83 NW3       30.08R
ST GEORGE      MOSUNNY   29  14  53 CALM      30.12F
HANKSVILLE     CLEAR     12   0  57 CALM      30.16S
KANAB          PTCLDY    21   3  45 N13       30.10F WCI   9
BLANDING         N/A     14   2  60 N9        30.16S WCI   2

$$

REGIONAL REPORTS     COLORADO/ARIZONA

CITY           SKY/WX    TMP DP  RH WIND       PRES   REMARKS
CRAIG, CO      CLEAR    -16 -21  78 VRB3      30.14R
GRAND JUNCTION   N/A    N/A N/A N/A MISG      30.15S
RIFLE, CO      CLOUDY     8   3  80 CALM      30.16S
MONTROSE, CO   CLEAR      4  -1  80 SE6       30.18R WCI  -7
CORTEZ, CO     CLEAR      9   4  80 CALM      30.10F
COLORADO CITY    N/A     28   5  37 NE9       30.06F WCI  20
PAGE, AZ       PTCLDY    26   7  44 CALM      30.08F
GRAND CANYON   CLEAR      4  -1  80 CALM      30.00F
KINGMAN, AZ    CLEAR     21   2  43 E6        30.04F WCI  13
FLAGSTAFF, AZ  CLEAR      4   0  83 CALM      29.99F

$$

REGIONAL REPORTS    NEVADA/IDAHO/WYOMING

CITY           SKY/WX    TMP DP  RH WIND       PRES   REMARKS
LAS VEGAS, NV  MOCLDY    39   2  21 N7        30.08S WCI  34
ELY, NY        CLOUDY    11   3  70 SE3       30.00S
ELKO, NV       MOCLDY     7   4  87 SW3       30.07R
POCATELLO, ID  MOCLDY    13   5  70 CALM      30.10F
BURLEY, ID     MOCLDY    12   7  80 N5        30.10S WCI   4
FORT BRIDGER,    N/A      0 -11  60 CALM      30.06S
EVANSTON, WY   MOCLDY    -1 -10  65 E5        30.01S WCI -11
ROCK SPRINGS,  PTCLDY    -4 -10  75 S3        30.06R

$$




USA.gov is the U.S. government's official web portal to all federal, state and local government web resources and services.